Location: Belvedere Heights
(33.9836°N, 117.3109°W)
Time: 06:30:47
(UTC+00:00)

POLYITAN 1 - Pass Details

Date: 28 May 2024
Orbit: 548 x 570 km, 98.1° (Epoch: 13 June)

Event Time Altitude Azimuth Distance (km) Brightness Sun altitude
Rises 11:04:29 0° 14° (NNE) 2,741 ? -17.2°
Reaches altitude 10° 11:06:38 10° 16° (NNE) 1,839 ? -16.9°
Maximum altitude 11:10:36 74° 102° (ESE) 576 ? -16.2°
Enters shadow 11:13:14 20° 185° (S) 1,290 ? -15.8°
